Current Weather Conditions by Major Hwy


I-84 West to East [Columbia River Gorge] 700 AM PST WED DEC 02 2020 ELEVA CITY SKY/WX TMP DP RH WIND PRES REMARKS 10 ASTORIA, OR CLEAR 47 25 42 E7G21 30.15F 20 KELSO CLOUDY 28 27 96 CALM 30.27S 40 PORTLAND, OR CLEAR 46 26 45 E17G26 30.25R 30 TROUTDALE, OR CLEAR 45 29 53 E28G43 30.26F 240 THE DALLES, OR CLEAR 27 25 92 CALM 30.57S FOG 620 HERMISTON, OR CLEAR 24 20 84 SE5 30.55S 1,480 PENDLETON, OR PTCLDY 24 23 96 CALM 30.51S 2,710 LA GRANDE CLEAR 17 15 92 NW5 30.51F 3,370 BAKER CITY NOT AVBL 2,190 ONTARIO CLEAR 21 17 84 CALM 30.59R
I-90 West to East 700 AM PST WED DEC 02 2020 ELEVA CITY SKY/WX TMP DP RH WIND PRES REMARKS 30 SEATAC AIRPORT CLEAR 39 32 76 NE10 30.24F 1,730 ELLENSBURG N/A 23 17 78 NE6 30.54S 1,200 MOSES LAKE CLEAR 27 22 81 N9 30.56F 1,880 SPOKANE GEIGER FOG 24 22 91 NE8 30.52F VSB 1/4
I-82 North West to South East 700 AM PST WED DEC 02 2020 ELEVA CITY SKY/WX TMP DP RH WIND PRES REMARKS 1,730 ELLENSBURG N/A 23 17 78 NE6 30.54S 1,050 YAKIMA TC FAIR 29 23 76 NE6 30.53F 720 360 PASCO CLEAR 24 22 91 N7 30.58S 620 HERMISTON, OR CLEAR 24 20 84 SE5 30.55S
Hwy97 North to South 700 AM PST WED DEC 02 2020 ELEVA CITY SKY/WX TMP DP RH WIND PRES REMARKS 850 OMAK CLEAR 22 18 85 CALM 30.60F 630 WENATCHEE CLEAR 25 23 92 CALM 30.58F 1,730 ELLENSBURG N/A 23 17 78 NE6 30.54S 1,050 YAKIMA TC FAIR 29 23 76 NE6 30.53F 1,640 GOLDENDALE* CLEAR 27 25 92 CALM 30.57S FOG *From Dallesport Airport Elev 240 3,080 REDMOND FOG 22 18 85 CALM 30.43S VSB 1/2 4,100 KLAMATH FALLS PTCLDY 24 20 84 NE5 30.29S
I-5 North to South 700 AM PST WED DEC 02 2020 ELEVA CITY SKY/WX TMP DP RH WIND PRES REMARKS 150 BELLINGHAM CLEAR 30 28 92 CALM 30.28F 100 ARLINGTON CLEAR 25 25 100 NW3 30.27F FOG 610 EVERETT CLEAR 36 31 82 CALM 30.26F 30 SEATAC AIRPORT CLEAR 39 32 76 NE10 30.24F 200 OLYMPIA PTCLDY 27 25 92 CALM 30.25F FOG 20 KELSO CLOUDY 28 27 96 CALM 30.27S 100 VANCOUVER CLEAR 49 21 33 E20G30 30.25S 40 PORTLAND CLEAR 46 26 45 E17G26 30.25R 200 SALEM CLEAR 31 27 85 S3 30.18F 360 EUGENE FOG 33 32 96 CALM 30.20S VSB 1/16 510 ROSEBURG CLOUDY 37 34 89 CALM 30.18S 1,300 MEDFORD CLEAR 28 25 88 CALM 30.20R
Data from:
http://www.wrh.noaa.gov/sew/get.php?pil=RWR&sid=OR&version=0&format=printer
http://www.wrh.noaa.gov/sew/get.php?pil=RWR&sid=WA&version=0&format=printer

Current Observations

Washington State Current Weather Observations   …  Oregon State Current Weather Observation



48 Hour Forecast

Seattle  …  Vancouver  …  Portland
————————————————————————————————————————
Bend  …  Spokane  …  Richland  …  Pendleton  …  Blue Mountains I-84  …  Yakima
————————————————————————————————————————
Goldendale, Washington Higher Elevations  …  Dallesport Airport - Goldendale  …  Bingen - White Salmon - Hood River  …  Index


Top of Page